Delta Virtual Airport Information Service

Oakland International Airport

ICAO: KOAK Country: United States
Latitude: 37.7213 Longitude: -122.22
Latest Arrival : DAC777 (KSFO-KOAK) Latest Departure : DALJUMP (KOAK-KLAX)


WX CaptureLIVE
Data provided by noaa.gov | Fetched at 10:50:39

METAR : KOAK 151453Z 30004KT 10SM FEW008 SCT010 SCT200 16/12 A3014 RMK AO2 SLP205 T01560117 51009

TAF : KOAK 151122Z 1512/1618 VRB04KT P6SM SCT010 FM151500 29014KT P6SM FEW010 FM151900 29015G20KT P6SM SKC FM160300 28008KT P6SM SKC FM161000 VRB04KT P6SM FEW010


Runway Data for KOAK
Data provided by openaviationdata.com

Runway ID Mag Var Hdg Length Elevation Surface ILS Freq ILS Id ILS Slope
09L 16 96° 5447 ft 6 ft Asphalt -- -- --
09R 16 96° 6206 ft 6 ft Asphalt -- -- --
11 16 114° 9998 ft 6 ft Asphalt 111.9 IAAZ 2
15 16 148° 3369 ft 6 ft Asphalt -- -- --
27L 16 276° 6206 ft 6 ft Asphalt -- -- --
27R 16 276° 5447 ft 6 ft Asphalt 109.9 IOAK 2
29 16 294° 9998 ft 6 ft Asphalt 108.7 IINB 3
33 16 328° 3369 ft 6 ft Asphalt -- -- --

Oakland International Airport, United States
Use only for reference purposes



Not for navigational purposes.